Location: Marne
(34.0056°N, 117.9064°W)
Time: 01:32:00
(UTC+00:00)

Cosmos 2219 - Pass Details

Date: 18 January 2020
Orbit: 833 x 860 km, 71.1° (Epoch: 19 February)

Event Time Altitude Azimuth Distance (km) Brightness Sun altitude
Rises 01:45:46 0° 179° (S) 3,362 6.6 -8.2°
Reaches altitude 10° 01:48:19 10° 171° (S) 2,431 5.7 -8.7°
Maximum altitude 01:53:27 39° 104° (ESE) 1,231 3.7 -9.7°
Drops below altitude 10° 01:58:37 10° 37° (NE) 2,449 5.1 -10.8°
Enters shadow 01:59:21 - 35° (NE) 2,712 5.4 -10.9°
